Regional Weather Roundup
Issued by NWS

Home | Current Version | Previous Version | Graphics & Text | Print | Product List | Glossary Off
Versions: 1 2 3 4 5 6 7 8 9 10 11 12 13 14 15 16 17 18 19 20 21 22 23 24 25 26 27 28 29 30 31 32 33 34 35 36 37 38 39 40 41 42 43 44 45 46 47 48 49 50

000
ASUS45 KCYS 281810
RWRWY

WYOMING REGIONAL WEATHER ROUNDUP
NATIONAL WEATHER SERVICE CHEYENNE WY
1200 PM MDT SUN AUG 28 2016

NOTE:  "FAIR" INDICATES FEW OR NO CLOUDS BELOW 12,000 FEET
WITH NO SIGNIFICANT WEATHER AND/OR OBSTRUCTIONS TO VISIBILITY.

WYZ001-281900-
YELLOWSTONE NATIONAL PARK

CITY           SKY/WX    TMP DP  RH WIND       PRES   REMARKS
LK YELLOWSTONE   N/A     62  38  40 VRB5      30.36F
6HR MIN TEMP:  32; 6HR MAX TEMP:  63;

W YELLOWSTONE  NOT AVBL

$$
WYZ002>013-054>058-071-098>099-281900-
NORTHERN WYOMING

CITY           SKY/WX    TMP DP  RH WIND       PRES   REMARKS
JACKSON        SUNNY     66  28  24 CALM      30.29S
CODY           FAIR      77  32  19 W9        30.13F
GREYBULL       FAIR      79  31  17 CALM      30.06F
6HR MIN TEMP:  49; 6HR MAX TEMP:  80;

WORLAND        NOT AVBL
SHERIDAN       FAIR      88  35  15 NE8       30.03S
6HR MIN TEMP:  47; 6HR MAX TEMP:  88;

BUFFALO        FAIR      86  25  11 NE8       30.10S
6HR MIN TEMP:  60; 6HR MAX TEMP:  87;

GILLETTE       FAIR      82  30  15 CALM      30.05S
6HR MIN TEMP:  44; 6HR MAX TEMP:  83;

HULETT         FAIR      82  39  21 W7        30.06S
NEWCASTLE      FAIR      77  37  24 CALM      30.09S

$$
WYZ014>020-022>026-101>103-281900-
CENTRAL WYOMING

CITY           SKY/WX    TMP DP  RH WIND       PRES   REMARKS
BIG PINEY      FAIR      71  28  20 VRB6      30.32F
6HR MIN TEMP:  32; 6HR MAX TEMP:  71;

PINEDALE       FAIR      70  25  18 N6        30.33F
DUBOIS         FAIR      73  21  14 NW17G24   30.28S
LANDER         FAIR      81  29  15 VRB7      30.16F
6HR MIN TEMP:  52; 6HR MAX TEMP:  81;

RIVERTON       FAIR      81  28  14 N8        30.17S
6HR MIN TEMP:  52; 6HR MAX TEMP:  81;

CASPER         FAIR      79  33  19 S14G21    30.16F
6HR MIN TEMP:  59; 6HR MAX TEMP:  79;

DOUGLAS        FAIR      85  32  15 W21       30.13F
6HR MIN TEMP:  42; 6HR MAX TEMP:  85;


$$
WYZ021-027>030-104>119-281900-
SOUTHERN WYOMING

CITY           SKY/WX    TMP DP  RH WIND       PRES   REMARKS
EVANSTON       FAIR      76  25  15 W13G21    30.34S
6HR MIN TEMP:  48; 6HR MAX TEMP:  76;

FORT BRIDGER   FAIR      78  26  15 W10       30.35F
ROCK SPRINGS   FAIR      75  24  15 SW16G24   30.31S
6HR MIN TEMP:  49; 6HR MAX TEMP:  75;

DIXON          FAIR      75  39  27 W6        30.32F
RAWLINS        FAIR      76  27  16 W10G23    30.29F
6HR MIN TEMP:  48; 6HR MAX TEMP:  76;

SARATOGA       FAIR      75  30  19 W14G24    30.31F
LARAMIE        FAIR      73  25  16 VRB7      30.30F
6HR MIN TEMP:  43; 6HR MAX TEMP:  74;

CHEYENNE       FAIR      81  29  15 VRB3      30.22F
6HR MIN TEMP:  52; 6HR MAX TEMP:  83;

TORRINGTON     FAIR      86  38  18 NE6       30.08F
6HR MIN TEMP:  49; 6HR MAX TEMP:  87;

PINE BLUFFS    FAIR      82  37  20 CALM      30.18S

$$



USA.gov is the U.S. government's official web portal to all federal, state and local government web resources and services.